Latham, NY

11:02 AM EST on January 21, 2017 (GMT -0500)
Albany International Airport

Weather History for KALB - September, 2013

Change the Weather History Date:

Wednesday, September 11, 2013

  Actual Average Record
Temperature  
Mean Temperature 82 °F 64 °F  
Max Temperature 93 °F 74 °F 98 °F (1931)
Min Temperature 70 °F 54 °F 36 °F (1917)
Degree Days  
Heating Degree Days 0 3  
Month to date heating degree days 31 24  
Since 1 July heating degree days 37 47  
Cooling Degree Days 17 2  
Month to date cooling degree days 53 31  
Year to date cooling degree days 751 574  
Growing Degree Days 32 (Base 50)    
Moisture  
Dew Point 71 °F    
Average Humidity 75    
Maximum Humidity 97    
Minimum Humidity 52    
Precipitation  
Precipitation 0.41 in 0.11 in 1.53 in (1997)
Month to date precipitation 1.47 1.12  
Year to date precipitation 32.98 27.27  
Sea Level Pressure  
Sea Level Pressure 30.02 in    
Wind  
Wind Speed 8 mph (South)    
Max Wind Speed 24 mph    
Max Gust Speed 31 mph    
Visibility 7 miles    
Events Rain , Thunderstorm    
T = Trace of Precipitation, MM = Missing Value Source: NWS Daily Summary

Daily Weather History Graph

Daily Weather History Graph

Search for Another Location

Airport or City:

Trip Planner

Search our weather history database for the weather conditions in past years. The results will help you decide how hot, cold, wet, or windy it might be!

Date:

Astronomy

Sep. 11, 2013 Rise Set
Actual Time 6:30 AM EDT 7:11 PM EDT
Civil Twilight 6:02 AM EDT 7:40 PM EDT
Nautical Twilight 5:28 AM EDT 8:13 PM EDT
Astronomical Twilight 4:53 AM EDT 8:48 PM EDT
Moon 1:05 PM EDT (9/11) 10:56 PM EDT (9/11)
Length of Visible Light 13h 37m
Length of Day
12h 40m
Waxing Crescent, 38% of the Moon is Illuminated
Sep 11
Waxing Crescent
Sep 12
First Quarter
Sep 19
Full
Sep 26
Last Quarter
Oct 4
New

Hourly Weather History & Observations

Time (EDT) Temp. Heat Index Dew Point Humidity Pressure Visibility Wind Dir Wind Speed Gust Speed Precip Events Conditions
12:51 AM 75.9 °F - 71.1 °F 85% 30.03 in 7.0 mi South 8.1 mph - N/A   Clear
1:51 AM 75.9 °F - 71.1 °F 85% 30.03 in 6.0 mi South 8.1 mph - N/A   Haze
2:51 AM 75.0 °F - 71.1 °F 87% 30.03 in 6.0 mi South 8.1 mph - N/A   Partly Cloudy
3:51 AM 75.0 °F - 71.1 °F 87% 30.04 in 6.0 mi SSE 6.9 mph - N/A   Clear
4:51 AM 75.0 °F - 71.1 °F 87% 30.04 in 6.0 mi South 9.2 mph - N/A   Clear
5:51 AM 75.0 °F - 71.1 °F 87% 30.04 in 4.0 mi SSE 9.2 mph - N/A   Clear
6:51 AM 73.9 °F - 71.1 °F 91% 30.07 in 3.0 mi South 8.1 mph - N/A   Partly Cloudy
7:51 AM 75.0 °F - 71.1 °F 87% 30.07 in 3.0 mi South 8.1 mph - N/A   Clear
8:51 AM 78.1 °F - 72.0 °F 81% 30.07 in 4.0 mi South 5.8 mph - N/A   Haze
9:51 AM 81.0 °F 85.8 °F 73.0 °F 77% 30.06 in 6.0 mi South 9.2 mph - N/A   Haze
10:51 AM 84.0 °F 90.2 °F 73.0 °F 69% 30.05 in 7.0 mi South 5.8 mph - N/A   Clear
11:51 AM 89.1 °F 98.0 °F 73.9 °F 61% 30.03 in 8.0 mi South 12.7 mph - N/A   Clear
12:51 PM 90.0 °F 99.0 °F 73.9 °F 59% 30.01 in 9.0 mi South 8.1 mph - N/A   Partly Cloudy
1:51 PM 91.0 °F 101.6 °F 75.0 °F 59% 29.99 in 10.0 mi South 8.1 mph - N/A   Scattered Clouds
2:51 PM 93.0 °F 103.2 °F 73.9 °F 54% 29.97 in 10.0 mi South 10.4 mph - N/A   Scattered Clouds
3:51 PM 93.0 °F 104.6 °F 75.0 °F 56% 29.95 in 10.0 mi South 10.4 mph - N/A   Scattered Clouds
4:51 PM 90.0 °F 101.3 °F 75.9 °F 63% 29.94 in 10.0 mi South 6.9 mph - N/A   Mostly Cloudy
5:51 PM 84.0 °F 93.7 °F 77.0 °F 79% 29.93 in 7.0 mi South 5.8 mph - 0.25 in   Mostly Cloudy
6:23 PM 82.4 °F 89.5 °F 75.2 °F 79% 29.94 in 7.0 mi SSW 4.6 mph - N/A Thunderstorm Thunderstorm
6:51 PM 82.0 °F 86.7 °F 72.0 °F 71% 29.99 in 7.0 mi West 12.7 mph 19.6 mph 0.03 in Rain , Thunderstorm Light Thunderstorms and Rain
7:06 PM 80.6 °F 83.9 °F 69.8 °F 70% 29.99 in 8.0 mi WSW 13.8 mph 21.9 mph 0.00 in Rain Light Rain
7:16 PM 80.6 °F 82.7 °F 66.2 °F 61% 29.99 in 8.0 mi WSW 21.9 mph 31.1 mph 0.00 in Rain , Thunderstorm Light Thunderstorms and Rain
7:51 PM 75.9 °F - 64.0 °F 67% 30.04 in 8.0 mi West 17.3 mph 24.2 mph 0.01 in Rain , Thunderstorm Light Thunderstorms and Rain
8:17 PM 73.4 °F - 64.4 °F 73% 30.05 in 8.0 mi West 16.1 mph - 0.05 in Rain Light Rain
8:51 PM 71.1 °F - 66.0 °F 84% 30.05 in 8.0 mi NNE 6.9 mph - 0.10 in Rain Light Rain
9:51 PM 70.0 °F - 68.0 °F 93% 30.03 in 10.0 mi East 6.9 mph - 0.02 in Rain Light Rain
10:51 PM 70.0 °F - 68.0 °F 93% 30.02 in 10.0 mi South 5.8 mph - 0.00 in   Overcast
11:51 PM 70.0 °F - 66.9 °F 90% 29.95 in 10.0 mi Calm Calm - N/A   Overcast